[[{"header":{"parameterUnit":"m.s-1","parameterCategory":1,"la1":30.2992,"la2":30.254,"lo1":-89.0895,"lo2":-89.0443,"dy":0.0025,"dx":0.0025,"nx":19,"ny":19,"refTime":"2026-03-23T03:00:00:Z","depth":0,"parameterNumber":2,"parameterNumberName":"U-component_of_WINDS"},"data":[0,0,0,-1.3401,-1.3401,-1.3395,-1.3394,-1.3406,-1.3406,0,0,0,0,0,0,0,0,0,0,0,-1.3414,-1.3414,-1.3401,-1.3401,-1.3395,-1.3394,-1.3406,-1.3406,0,0,0,0,0,0,0,0,0,0,0,-1.3414,-1.3414,-1.3415,-1.3401,-1.3395,-1.3394,-1.3406,-1.3404,0,0,0,0,0,0,0,0,0,0,-1.3406,-1.3429,-1.3414,-1.3415,-1.3401,-1.3395,-1.3394,-1.3403,-1.3404,-1.3417,0,-1.3431,0,-1.3418,-1.3408,-1.3408,0,0,0,-1.3393,-1.3429,-1.3417,-1.3415,-1.3401,-1.3395,-1.3395,-1.3403,-1.3404,-1.3417,-1.3431,-1.343,-1.3419,-1.3408,-1.3408,-1.3509,-1.351,0,0,-1.3393,-1.3419,-1.3417,-1.3418,-1.342,-1.3395,-1.3395,-1.3403,-1.342,-1.3431,-1.343,-1.3419,-1.3408,-1.3408,-1.3508,-1.3509,0,0,0,-1.34,-1.342,-1.3407,-1.3418,-1.3415,-1.3395,-1.3395,-1.3419,-1.3413,-1.343,-1.3419,-1.3408,-1.3409,-1.3507,-1.3509,-1.3577,0,0,0,-1.3399,-1.3423,-1.3408,-1.3423,-1.3416,-1.3417,-1.3411,-1.3412,-1.3412,-1.3419,-1.3408,-1.3409,-1.3506,-1.3508,-1.3573,-1.3606,0,0,0,-1.341,-1.3424,-1.3427,-1.3425,-1.3423,-1.3416,-1.341,-1.3412,-1.3406,-1.3408,-1.3409,-1.3506,-1.3508,-1.357,-1.36,-1.3642,0,0,0,-1.343,-1.3489,-1.3429,-1.349,-1.3423,-1.3458,-1.341,-1.3435,-1.3445,-1.3409,-1.3506,-1.3508,-1.3569,-1.3597,-1.3638,-1.3683,-1.3703,0,0,-1.3519,-1.35,-1.3534,-1.348,-1.3533,-1.3457,-1.352,-1.3504,-1.348,-1.3501,-1.3503,-1.3575,-1.36,-1.3641,-1.3804,-1.3821,0,0,0,-1.3571,-1.3596,-1.3603,-1.3614,-1.3602,-1.3596,-1.3568,-1.3562,-1.3578,-1.3496,-1.3599,-1.3613,-1.3636,-1.3656,-1.367,-1.3689,-1.3518,-1.3518,-1.3518,-1.3735,-1.3701,-1.3754,-1.372,-1.373,-1.37,-1.3705,-1.3692,-1.3655,-1.3679,-1.3686,-1.379,-1.3814,-1.3825,-1.3845,-1.3705,-1.3705,-1.3705,-1.3706,-1.3864,-1.3894,-1.3841,-1.3875,-1.3839,-1.3866,-1.3839,-1.3811,-1.3832,-1.3782,-1.38,-1.375,-1.3844,-1.3859,-1.371,-1.371,-1.3709,-1.3709,-1.3708,-1.397,-1.3978,-1.3969,-1.398,-1.3992,-1.3954,-1.3976,-1.3941,-1.3909,-1.3927,-1.3931,-1.393,-1.3926,-1.3931,-1.3931,-1.3932,-1.3932,-1.3932,-1.3932,-1.4085,-1.4072,-1.4095,-1.4087,-1.4089,-1.4087,-1.4055,-1.4056,-1.4049,-1.4022,-1.4022,-1.3983,-1.3858,-1.3829,-1.3938,-1.3937,-1.3936,-1.3936,-1.3935,-1.4232,-1.4193,-1.4229,-1.4231,-1.4218,-1.4233,-1.4187,-1.4192,-1.4187,-1.42,-1.4156,-1.4068,-1.4047,-1.4036,-1.4012,-1.4162,-1.4162,-1.4162,-1.4162,-1.4324,-1.4309,-1.4338,-1.4343,-1.4343,-1.4305,-1.4347,-1.4323,-1.4292,-1.4288,-1.426,-1.4224,-1.4214,-1.4199,-1.4184,-1.4161,-1.4345,-1.4346,-1.4346,-1.4413,-1.4397,-1.444,-1.4408,-1.4395,-1.4385,-1.4424,-1.4432,-1.4389,-1.4353,-1.4283,-1.4276,-1.4217,-1.4199,-1.4165,-1.4142,-1.4099,0,0]},{"header":{"parameterUnit":"m.s-1","parameterCategory":1,"la1":30.2992,"la2":30.254,"lo1":-89.0895,"lo2":-89.0443,"dy":0.0025,"dx":0.0025,"nx":19,"ny":19,"refTime":"2026-03-23T03:00:00:Z","depth":0,"parameterNumber":3,"parameterNumberName":"V-component_of_WINDS"},"data":[0,0,0,-2.2072,-2.2073,-2.2136,-2.2136,-2.2215,-2.2215,0,0,0,0,0,0,0,0,0,0,0,-2.2054,-2.2055,-2.2072,-2.2073,-2.2136,-2.2136,-2.2215,-2.2215,0,0,0,0,0,0,0,0,0,0,0,-2.2054,-2.2054,-2.2055,-2.2074,-2.2136,-2.2136,-2.2214,-2.2167,0,0,0,0,0,0,0,0,0,0,-2.2106,-2.2091,-2.2054,-2.2055,-2.2074,-2.2136,-2.2136,-2.2165,-2.217,-2.2186,0,-2.2202,0,-2.221,-2.2221,-2.2221,0,0,0,-2.2072,-2.2087,-2.2103,-2.2055,-2.2075,-2.2136,-2.2107,-2.2168,-2.2174,-2.2193,-2.2203,-2.2206,-2.2212,-2.2221,-2.2222,-2.2322,-2.2322,0,0,-2.2069,-2.2065,-2.2099,-2.2107,-2.2099,-2.2105,-2.2109,-2.2172,-2.2182,-2.2204,-2.2208,-2.2213,-2.2222,-2.2222,-2.2321,-2.2322,0,0,0,-2.206,-2.2063,-2.2078,-2.2104,-2.2116,-2.2107,-2.2112,-2.2179,-2.2184,-2.2209,-2.2214,-2.2222,-2.2223,-2.2321,-2.2321,-2.2345,0,0,0,-2.2057,-2.2057,-2.2076,-2.2075,-2.2114,-2.2148,-2.2118,-2.218,-2.2187,-2.2213,-2.2222,-2.2224,-2.232,-2.2321,-2.2343,-2.2356,0,0,0,-2.205,-2.2057,-2.2066,-2.2074,-2.2101,-2.2147,-2.2156,-2.2181,-2.219,-2.2221,-2.2224,-2.232,-2.2321,-2.2341,-2.2353,-2.2382,0,0,0,-2.204,-2.2085,-2.2066,-2.2118,-2.2101,-2.2162,-2.2156,-2.2201,-2.223,-2.2223,-2.232,-2.2321,-2.2341,-2.2352,-2.238,-2.2406,-2.2416,0,0,-2.2094,-2.2091,-2.2122,-2.2107,-2.2171,-2.2152,-2.2219,-2.2248,-2.2253,-2.2298,-2.2301,-2.2343,-2.2353,-2.2381,-2.2474,-2.2482,0,0,0,-2.2138,-2.216,-2.2178,-2.2207,-2.2231,-2.2253,-2.2273,-2.2284,-2.2322,-2.2276,-2.2361,-2.2367,-2.2384,-2.2396,-2.2403,-2.2418,-2.2327,-2.2327,-2.2327,-2.221,-2.2216,-2.2267,-2.228,-2.2308,-2.2329,-2.2351,-2.2369,-2.2365,-2.2385,-2.2399,-2.2454,-2.2469,-2.2474,-2.2489,-2.2412,-2.2412,-2.2412,-2.2412,-2.2291,-2.2323,-2.2319,-2.2367,-2.2372,-2.2412,-2.2433,-2.2429,-2.2466,-2.2445,-2.246,-2.2436,-2.2483,-2.2496,-2.2414,-2.2414,-2.2414,-2.2414,-2.2413,-2.2339,-2.2356,-2.2369,-2.2412,-2.2443,-2.2454,-2.2491,-2.2493,-2.2496,-2.2511,-2.2526,-2.2525,-2.2525,-2.2518,-2.2518,-2.2518,-2.2518,-2.2518,-2.2518,-2.2384,-2.2399,-2.243,-2.246,-2.2479,-2.2504,-2.2525,-2.2543,-2.2564,-2.2563,-2.2563,-2.2557,-2.2487,-2.2469,-2.2521,-2.2521,-2.2521,-2.252,-2.252,-2.2465,-2.2447,-2.2496,-2.2515,-2.2551,-2.2582,-2.2585,-2.2622,-2.2637,-2.2655,-2.2646,-2.2593,-2.2589,-2.2584,-2.2569,-2.2645,-2.2645,-2.2645,-2.2645,-2.2506,-2.2505,-2.2555,-2.2586,-2.2616,-2.2624,-2.2677,-2.2693,-2.2707,-2.2716,-2.2705,-2.2686,-2.2681,-2.268,-2.2673,-2.2659,-2.2756,-2.2756,-2.2756,-2.2556,-2.2558,-2.2604,-2.2619,-2.2647,-2.267,-2.272,-2.2754,-2.2766,-2.276,-2.2724,-2.2719,-2.2688,-2.2678,-2.2672,-2.266,-2.2635,0,0]}]]